Regional Weather Roundup
Issued by NWS Sioux Falls, SD

Home | Current Version | Previous Version | Graphics & Text | Print | Product List | Glossary Off
Versions: 1 2 3 4 5 6 7 8 9 10 11 12 13 14 15 16 17 18 19 20 21 22 23 24 25 26 27 28 29 30 31 32 33 34 35 36 37 38 39 40 41 42 43 44 45 46 47 48 49 50

000
ASUS43 KFSD 271310
RWRFSD

WEATHER ROUNDUP FOR SE SOUTH DAKOTA/SW MINNESOTA/NW IOWA
NATIONAL WEATHER SERVICE SIOUX FALLS SD
800 AM CDT FRI MAY 27 2016

NOTE: "FAIR" INDICATES FEW OR NO CLOUDS BELOW 12,000 FEET WITH NO
SIGNIFICANT WEATHER AND OR OBSTRUCTIONS TO VISIBILITY.


SDZ038>040-050-052>070-271400-
SOUTHEAST SOUTH DAKOTA

CITY           SKY/WX    TMP DP  RH WIND       PRES   REMARKS
BROOKINGS      CLOUDY    60  56  86 S9        29.74
CHAMBERLAIN    CLOUDY    61  57  88 N7        29.74F
HURON          CLOUDY    60  58  92 N10       29.71F
MADISON        FAIR      57  57 100 SE7       29.75R
MITCHELL       CLOUDY    60  59  96 SE7       29.74R
SIOUX FALLS    CLOUDY    62  55  77 SE9       29.75R
WINNER         CLOUDY    58  53  84 N9        29.74F
YANKTON        CLOUDY    63  55  77 SE8       29.76R
$$

MNZ071-072-080-081-089-090-097-098-271400-
SOUTHWEST MINNESOTA

CITY           SKY/WX    TMP DP  RH WIND       PRES   REMARKS
FAIRMONT       CLOUDY    64  54  68 SE16      29.76F
JACKSON        CLOUDY    63  55  77 SE6       29.78R
LUVERNE        CLOUDY    61  54  77 S6        29.76R
MARSHALL       CLOUDY    65  56  72 SE3       29.75S
MONTEVIDEO     CLOUDY    66  55  68 CALM      29.75S
PIPESTONE      CLOUDY    63  55  77 S3        29.75R
REDWOOD FALLS  MOSUNNY   66  57  72 S6        29.74F
TRACY          MOSUNNY   65  58  78 S9        29.76R
WINDOM         CLOUDY    66  55  68 CALM      29.77S
WORTHINGTON    CLOUDY    62  58  86 SE8       29.78S
$$

IAZ001>003-012>014-020>022-031-032-NEZ013-014-SDZ071-271400-
NORTHWEST IOWA

CITY           SKY/WX    TMP DP  RH WIND       PRES   REMARKS
CHEROKEE       LGT RAIN  61  59  93 E3        29.77R
ESTHERVILLE    CLOUDY    61  58  90 SE9       29.77S
LE MARS        CLOUDY    63  57  82 SE7       29.76R
ORANGE CITY    CLOUDY    61  55  82 E3        29.76R
SHELDON        CLOUDY    61  57  88 E5        29.75R
SIOUX CITY     CLOUDY    63  58  83 S6        29.77R
SPENCER        CLOUDY    60  57  89 E5        29.76F
STORM LAKE     CLOUDY    61  59  94 S8        29.77R
$$

ABBREVIATIONS USED IN REMARKS
   TC - TEMPERATURE IN CELSIUS
  WCI - WIND CHILL INDEX
   HX - HEAT INDEX
  VSB - VISIBILITY




USA.gov is the U.S. government's official web portal to all federal, state and local government web resources and services.